Kake, AK

1:19 PM AKDT on March 27, 2017 (GMT -0800)
Kake

Weather History for PAFE - November, 2012

Change the Weather History Date:

Thursday, November 1, 2012

  Actual Average Record
Temperature  
Mean Temperature 36 °F -  
Max Temperature 39 °F 41 °F 51 °F (2003)
Min Temperature 32 °F 33 °F 30 °F (2015)
Degree Days  
Heating Degree Days 30    
Moisture  
Dew Point 25 °F    
Average Humidity 66    
Maximum Humidity 75    
Minimum Humidity 48    
Precipitation  
Precipitation 0.00 in - - ()
Sea Level Pressure  
Sea Level Pressure 29.79 in    
Wind  
Wind Speed 3 mph (ENE)    
Max Wind Speed 10 mph    
Max Gust Speed -    
Visibility 10 miles    
Events      
Averages and records for this station are not official NWS values.
T = Trace of Precipitation, MM = Missing Value Source: NWS Daily Summary

Daily Weather History Graph

Daily Weather History Graph

Search for Another Location

Airport or City:

Trip Planner

Search our weather history database for the weather conditions in past years. The results will help you decide how hot, cold, wet, or windy it might be!

Date:

Astronomy

Nov. 01, 2012 Rise Set
Actual Time 8:07 AM AKDT 5:10 PM AKDT
Civil Twilight 7:26 AM AKDT 5:50 PM AKDT
Nautical Twilight 6:41 AM AKDT 6:36 PM AKDT
Astronomical Twilight 5:56 AM AKDT 7:20 PM AKDT
Moon 6:44 PM AKDT (11/1) 11:14 AM AKDT (11/1)
Length of Visible Light 10h 24m
Length of Day
9h 02m
Waning Gibbous, 92% of the Moon is Illuminated
Nov 1
Waning Gibbous
Nov 6
Last Quarter
Nov 13
New
Nov 20
First Quarter
Nov 28
Full

Hourly Weather History & Observations

Time (AKDT) Temp. Windchill Dew Point Humidity Pressure Visibility Wind Dir Wind Speed Gust Speed Precip Events Conditions
12:16 AM 33.8 °F - 23.0 °F 65% 29.79 in 10.0 mi Calm Calm - N/A   Overcast
1:16 AM 33.8 °F 28.6 °F 24.8 °F 70% 29.79 in 10.0 mi East 5.8 mph - N/A   Overcast
1:56 AM 33.8 °F - 23.0 °F 65% 29.78 in 10.0 mi Calm Calm - N/A   Overcast
2:36 AM 33.8 °F - 21.2 °F 60% 29.79 in 10.0 mi Calm Calm - N/A   Overcast
2:56 AM 32.0 °F - 23.0 °F 69% 29.80 in 10.0 mi Calm Calm - N/A   Overcast
3:16 AM 32.0 °F 27.5 °F 21.2 °F 64% 29.79 in 10.0 mi East 4.6 mph - N/A   Overcast
3:36 AM 32.0 °F 28.7 °F 23.0 °F 69% 29.80 in 10.0 mi ENE 3.5 mph - N/A   Overcast
3:56 AM 32.0 °F 26.4 °F 23.0 °F 69% 29.80 in 10.0 mi ENE 5.8 mph - N/A   Overcast
4:16 AM 33.8 °F 30.8 °F 24.8 °F 70% 29.81 in 10.0 mi ENE 3.5 mph - N/A   Overcast
4:36 AM 33.8 °F 30.8 °F 24.8 °F 70% 29.81 in 10.0 mi ENE 3.5 mph - N/A   Overcast
4:56 AM 32.0 °F 27.5 °F 24.8 °F 75% 29.81 in 10.0 mi East 4.6 mph - N/A   Overcast
5:16 AM 33.8 °F 29.6 °F 24.8 °F 70% 29.81 in 10.0 mi ENE 4.6 mph - N/A   Overcast
5:36 AM 32.0 °F 28.7 °F 24.8 °F 75% 29.81 in 10.0 mi ENE 3.5 mph - N/A   Overcast
5:56 AM 32.0 °F 26.4 °F 24.8 °F 75% 29.81 in 10.0 mi East 5.8 mph - N/A   Mostly Cloudy
6:16 AM 32.0 °F 27.5 °F 24.8 °F 75% 29.81 in 10.0 mi East 4.6 mph - N/A   Overcast
6:36 AM 32.0 °F 27.5 °F 24.8 °F 75% 29.81 in 10.0 mi East 4.6 mph - N/A   Overcast
6:56 AM 32.0 °F 28.7 °F 24.8 °F 75% 29.80 in 10.0 mi East 3.5 mph - N/A   Overcast
7:16 AM 32.0 °F - 24.8 °F 75% 29.81 in 10.0 mi Calm Calm - N/A   Overcast
7:36 AM 32.0 °F - 23.0 °F 69% 29.81 in 10.0 mi Calm Calm - N/A   Overcast
8:16 AM 32.0 °F - 24.8 °F 75% 29.81 in 10.0 mi Calm Calm - N/A   Overcast
8:36 AM 32.0 °F 28.7 °F 24.8 °F 75% 29.81 in 10.0 mi East 3.5 mph - N/A   Overcast
9:16 AM 32.0 °F 28.7 °F 24.8 °F 75% 29.82 in 10.0 mi East 3.5 mph - N/A   Scattered Clouds
9:36 AM 32.0 °F - 24.8 °F 75% 29.83 in 10.0 mi Calm Calm - N/A   Clear
9:56 AM 33.8 °F - 24.8 °F 70% 29.83 in 10.0 mi Calm Calm - N/A   Clear
10:16 AM 33.8 °F - 21.2 °F 60% 29.84 in 10.0 mi Calm Calm - N/A   Clear
10:36 AM 33.8 °F - 21.2 °F 60% 29.84 in 10.0 mi Calm Calm - N/A   Clear
10:56 AM 35.6 °F - 21.2 °F 56% 29.84 in 10.0 mi Calm Calm - N/A   Clear
11:16 AM 37.4 °F - 23.0 °F 56% 29.85 in 10.0 mi Calm Calm - N/A   Clear
11:36 AM 35.6 °F - 23.0 °F 60% 29.85 in 10.0 mi Calm Calm - N/A   Clear
11:56 AM 37.4 °F - 24.8 °F 60% 29.85 in 10.0 mi Calm Calm - N/A   Clear
12:16 PM 37.4 °F 33.8 °F 24.8 °F 60% 29.85 in 10.0 mi SSW 4.6 mph - N/A   Clear
12:36 PM 37.4 °F 34.9 °F 24.8 °F 60% 29.84 in 10.0 mi SSW 3.5 mph - N/A   Clear
12:56 PM 37.4 °F - 24.8 °F 60% 29.84 in 10.0 mi Calm Calm - N/A   Clear
1:16 PM 37.4 °F 33.8 °F 24.8 °F 60% 29.83 in 10.0 mi West 4.6 mph - N/A   Clear
1:36 PM 39.2 °F 37.0 °F 24.8 °F 56% 29.82 in 10.0 mi West 3.5 mph - N/A   Clear
1:56 PM 39.2 °F 35.0 °F 26.6 °F 61% 29.82 in 10.0 mi SSE 5.8 mph - N/A   Clear
2:16 PM 39.2 °F 35.0 °F 26.6 °F 61% 29.81 in 10.0 mi West 5.8 mph - N/A   Clear
2:36 PM 39.2 °F 35.9 °F 26.6 °F 61% 29.81 in 10.0 mi NNW 4.6 mph - N/A   Clear
2:56 PM 39.2 °F 35.9 °F 28.4 °F 65% 29.81 in 10.0 mi WSW 4.6 mph - N/A   Clear
3:16 PM 39.2 °F 35.0 °F 28.4 °F 65% 29.81 in 10.0 mi North 5.8 mph - N/A   Clear
3:36 PM 39.2 °F 33.0 °F 26.6 °F 61% 29.80 in 10.0 mi NE 9.2 mph - N/A   Clear
3:56 PM 39.2 °F 32.5 °F 26.6 °F 61% 29.80 in 10.0 mi ENE 10.4 mph - N/A   Clear
4:16 PM 39.2 °F 33.6 °F 26.6 °F 61% 29.79 in 10.0 mi NE 8.1 mph - N/A   Clear
4:36 PM 37.4 °F 31.4 °F 26.6 °F 65% 29.79 in 10.0 mi NE 8.1 mph - N/A   Clear
4:56 PM 37.4 °F 32.1 °F 26.6 °F 65% 29.78 in 10.0 mi ENE 6.9 mph - N/A   Clear
5:16 PM 35.6 °F 29.9 °F 26.6 °F 70% 29.78 in 10.0 mi ENE 6.9 mph - N/A   Clear
5:36 PM 37.4 °F 32.1 °F 26.6 °F 65% 29.78 in 10.0 mi ENE 6.9 mph - N/A   Clear
5:56 PM 35.6 °F 29.9 °F 26.6 °F 70% 29.78 in 10.0 mi East 6.9 mph - N/A   Clear
6:16 PM 35.6 °F 29.9 °F 26.6 °F 70% 29.77 in 10.0 mi ENE 6.9 mph - N/A   Clear
6:36 PM 33.8 °F 27.7 °F 26.6 °F 75% 29.77 in 10.0 mi ENE 6.9 mph - N/A   Clear
6:56 PM 33.8 °F 27.0 °F 24.8 °F 70% 29.76 in 10.0 mi ENE 8.1 mph - N/A   Clear
7:16 PM 33.8 °F 27.7 °F 26.6 °F 75% 29.76 in 10.0 mi ENE 6.9 mph - N/A   Mostly Cloudy
7:36 PM 35.6 °F 28.6 °F 26.6 °F 70% 29.76 in 10.0 mi NE 9.2 mph - N/A   Mostly Cloudy
7:56 PM 35.6 °F - 21.2 °F 56% 29.75 in 10.0 mi Calm Calm - N/A   Overcast
8:16 PM 35.6 °F 30.7 °F 21.2 °F 56% 29.74 in 10.0 mi East 5.8 mph - N/A   Overcast
8:36 PM 35.6 °F 29.9 °F 21.2 °F 56% 29.74 in 10.0 mi ENE 6.9 mph - N/A   Overcast
8:56 PM 37.4 °F 33.8 °F 19.4 °F 48% 29.74 in 10.0 mi East 4.6 mph - N/A   Overcast
9:16 PM 35.6 °F 30.7 °F 21.2 °F 56% 29.74 in 10.0 mi East 5.8 mph - N/A   Overcast
9:36 PM 35.6 °F 31.7 °F 21.2 °F 56% 29.74 in 10.0 mi SE 4.6 mph - N/A   Overcast
9:56 PM 35.6 °F - 24.8 °F 65% 29.74 in 10.0 mi Calm Calm - N/A   Overcast
10:16 PM 35.6 °F - 24.8 °F 65% 29.73 in 10.0 mi Calm Calm - N/A   Overcast
10:36 PM 35.6 °F - 28.4 °F 75% 29.73 in 10.0 mi Calm Calm - N/A   Overcast
10:56 PM 35.6 °F - 26.6 °F 70% 29.72 in 10.0 mi Calm Calm - N/A   Overcast
11:16 PM 35.6 °F - 26.6 °F 70% 29.71 in 10.0 mi Calm Calm - N/A   Overcast
11:36 PM 33.8 °F - 26.6 °F 75% 29.70 in 10.0 mi Calm Calm - N/A   Overcast
11:56 PM 35.6 °F - 28.4 °F 75% 29.70 in 10.0 mi Calm Calm - N/A   Overcast